Flag for U.S.A. Weather past 2 weeks in Visalia, California, U.S.A.

Now
64 °F

Sunny.


Feels Like: 64 °F
Forecast: 40 / 67 °F
Wind: No wind

Location: Visalia Municipal

Current Time: Feb 26, 2015 at 3:36:44 PM

Latest Report: Feb 26, 2015 at 2:55 PM


Visibility: 10 mi

Pressure: 29.92 "Hg

Humidity: 46%

Dew point: 43 °F

Location of VisaliaLocation

Historic Weather in Visalia — Graph

°F

Visalia temperature yesterday

Maximum temperature yesterday: 64 °F (at 2:15 PM)
Minimum temperature yesterday: 39 °F (at 3:35 AM)
Average temperature yesterday: 51 °F

Past Weeks' High & Low Weather Summary

 TemperatureHumidityPressure
High75 °F (Feb 16, 2:35 PM)94% (Feb 19, 11:15 AM)30.38 "Hg (Feb 19, 11:15 AM)
Low37 °F (Feb 24, 4:35 AM)36% (Feb 17, 3:15 PM)29.81 "Hg (Feb 22, 2:15 PM)
Average54 °F73%30.08 "Hg
* Reported Feb 11 2:15 PM — Feb 26 2:35 PM, Visalia, Weather by CustomWeather, © 2015

Note: Actual official high and low records may vary slightly from our data, if they occured in-between our weather recording intervals... More about our weather records

Advertising

Visalia weather history for previous 24 hours

 ConditionsComfort  
Time TempWeatherWind HumidityBarometerVisibility
2:35 PM
Thu, Feb 26
64 °FSunny.3 mph46%29.93 "Hg10 mi
1:55 PM64 °FSunny.5 mph49%29.96 "Hg10 mi
1:35 PM64 °FSunny.No wind52%29.97 "Hg10 mi
1:15 PM64 °FSunny.6 mph49%29.97 "Hg10 mi
12:55 PM64 °FSunny.3 mph49%29.99 "Hg10 mi
12:35 PM63 °FSunny.5 mph52%30.00 "Hg10 mi
12:15 PM63 °FSunny.3 mph52%30.01 "Hg10 mi
11:55 AM61 °FSunny.5 mph59%30.02 "Hg10 mi
11:35 AM61 °FSunny.6 mph59%30.03 "Hg9 mi
11:15 AM61 °FSunny.3 mph63%30.04 "Hg10 mi
10:55 AM57 °FSunny.5 mph67%30.05 "Hg9 mi
10:35 AM55 °FSunny.3 mph72%30.04 "Hg8 mi
10:15 AM55 °FSunny.3 mph72%30.05 "Hg7 mi
9:55 AM54 °FSunny.No wind72%30.05 "Hg6 mi
9:35 AM54 °FSunny.No wind72%30.06 "Hg5 mi
9:15 AM52 °FSunny.No wind77%30.05 "Hg5 mi
8:55 AM50 °FSunny.3 mph82%30.06 "Hg5 mi
8:35 AM48 °FSunny.No wind82%30.07 "Hg5 mi
8:15 AM46 °FSunny.No wind87%30.06 "Hg5 mi
7:55 AM45 °FSunny.No wind81%30.05 "Hg3 mi
7:35 AM43 °FSunny.No wind81%30.05 "Hg3 mi
7:15 AM43 °FSunny.No wind76%30.04 "Hg2 mi
6:55 AM43 °FSunny.No wind76%30.03 "Hg2 mi
6:35 AM41 °FSunny.No wind81%30.02 "Hg1 mi
6:15 AM43 °FClear.No wind76%30.02 "Hg3 mi
5:55 AM45 °FClear.No wind76%30.02 "Hg2 mi
5:35 AM43 °FClear.No wind81%30.03 "Hg3 mi
5:15 AM45 °FClear.No wind76%30.03 "Hg3 mi
4:55 AM45 °FClear.3 mph76%30.03 "Hg3 mi
4:35 AM41 °FClear.3 mph81%30.03 "Hg2 mi
4:15 AM45 °FClear.6 mph76%30.04 "Hg3 mi
3:55 AM45 °FClear.No wind76%30.05 "Hg3 mi
3:35 AM45 °FClear.No wind76%30.05 "Hg4 mi
3:15 AM45 °FClear.No wind76%30.05 "Hg4 mi
2:55 AM45 °FClear.3 mph76%30.05 "Hg4 mi
2:35 AM45 °FClear.No wind81%30.05 "Hg3 mi
2:15 AM45 °FClear.No wind76%30.05 "Hg3 mi
1:55 AM45 °FClear.5 mph76%30.05 "Hg3 mi
1:35 AM45 °FClear.No wind76%30.07 "Hg4 mi
1:15 AM46 °FClear.No wind76%30.07 "Hg5 mi
12:55 AM45 °FClear.No wind76%30.08 "Hg5 mi
12:35 AM45 °FClear.5 mph76%30.08 "Hg5 mi
12:15 AM46 °FClear.5 mph76%30.09 "Hg7 mi
11:55 PM
Wed, Feb 25
46 °FClear.No wind71%30.11 "Hg7 mi
11:35 PM46 °FClear.No wind76%30.11 "Hg7 mi
11:15 PM46 °FClear.No wind76%30.11 "Hg7 mi
10:55 PM46 °FClear.No wind76%30.12 "Hg8 mi
10:15 PM48 °FClear.3 mph71%30.12 "Hg10 mi
9:55 PM48 °FClear.No wind71%30.11 "Hg10 mi
9:35 PM50 °FClear.No wind76%30.11 "Hg10 mi
9:15 PM48 °FClear.No wind71%30.11 "Hg10 mi
8:55 PM52 °FClear.No wind67%30.11 "Hg10 mi
8:35 PM52 °FClear.No wind72%30.12 "Hg10 mi
7:55 PM54 °FClear.No wind67%30.11 "Hg10 mi
7:35 PM54 °FClear.No wind67%30.10 "Hg10 mi
6:55 PM57 °FClear.No wind59%30.11 "Hg10 mi
6:35 PM57 °FClear.No wind59%30.11 "Hg10 mi
6:15 PM57 °FClear.No wind59%30.11 "Hg10 mi
5:55 PM59 °FClear.No wind55%30.12 "Hg10 mi
5:35 PM61 °FSunny.3 mph52%30.12 "Hg10 mi
5:15 PM63 °FSunny.3 mph52%30.12 "Hg10 mi
4:55 PM61 °FSunny.3 mph52%30.12 "Hg10 mi
4:35 PM63 °FSunny.3 mph52%30.12 "Hg10 mi
4:15 PM64 °FSunny.No wind49%30.12 "Hg10 mi
3:55 PM64 °FSunny.3 mph49%30.12 "Hg10 mi
3:35 PM64 °FSunny.3 mph49%30.13 "Hg10 mi
3:15 PM64 °FSunny.6 mph49%30.14 "Hg10 mi
Weather by CustomWeather, © 2015

See weather overviewHow to use our weather pages